Погода в Сан-Фернандо-дель-Валье-де-Катамарка

Аргентина     28°28′32″S   65°46′37″W
темп.,
°C
ветер,
м/с
пор.,
м/с
влажн.,
%
обл.,
%
осадки,
мм/ч
давл.,
гПа
погр.,
м
6 марта, сб
сб600:00+22св57540 0.0 1012120
03:00+21св610540 0.0 1011202
06:00+21св610560 0.0 1010197
09:00+24ссв710530 0.0 1012436
12:00+30ссв66400 0.0 1011763
15:00+32ссв54330 0.0 10081297
18:00+31св66410 0.0 1007988
21:00+25св610540 0.0 1009156
7 марта, вс
вс700:00+23св611550 0.0 1011233
03:00+23ссв610490 0.0 1010203
06:00+22ссв610510 0.0 1010187
09:00+25ссв710460 0.0 1012397
12:00+31ссв33350 0.0 1011926
15:00+34ссв33280 0.0 10091813
18:00+33ссв44330 0.0 10061164
21:00+25ссв58520 0.0 1007120
8 марта, пн
пн800:00+24ссв610520 0.0 1009156
03:00+23ссв58480 0.0 1009115
06:00+22св33510 0.0 101042
09:00+26всв01440 0.0 1012150
12:00+30ююз32360 0.0 1013799
15:00+34юз34280 0.0 10111901
18:00+32сз343543 0.0 1009344
21:00+27ссв453644 0.0 1011116
9 марта, вт
вт900:00+25всв453759 0.0 101370
03:00+23св583731 0.0 1012127
06:00+23ссв813330 0.0 1011272
09:00+24ссв913360 0.0 1013566
12:00+30св1011270 0.0 10121137
15:00+32св1012280 0.0 10091256
18:00+31ссв1012310 0.0 10061489
21:00+25ссв713420 0.0 1006324
10 марта, ср
ср1000:00+25ссв713390 0.0 1008282
03:00+24ссв612380 0.0 1007220
06:00+23ссв611410 0.0 1007198
09:00+25ссв812430 0.0 1008474
12:00+30св9113411 0.0 1007782
15:00+32ссв1011316 0.0 1004943
18:00+32ссв10133129 0.1 10011191
21:00+27ссв8144049 0.1 1003398